Pagina principale
METAR-TAF:

METAR-TAF

Aeroporti :

Qazvin, Iran

latitudine: 36-15N, longitudine: 050-00E, altezza: 1278 m

Osservazione

Il bollettino è stato emesso 20 minuti fa, alle 22:00 UTC
Vento 4 kt da nord
Temperature 11°C
Umidità 40%
Pressione 1024 hPa
Visibilità 10 km o più
nessuna nube inferiore a 1500 m e nessun cumulonembo

METAR: OIIK 292200Z 36004KT CAVOK 11/M02 Q1024

Ora: 01:50 (22:20 UTC)


TAF: mancante

Osservazioni e previsioni meteorologiche di più di 4000 aeroporti (messaggi METAR e TAF).

Le stazioni disponibili sono rappresentate dai dischi gialli e rossi sulla carta.

Puntare il mouse per vedere il nome della stazione.

Clicca sopra per visualizzare le osservazioni e previsioni meteorologiche.

Per cambiare la mappa : fare clic sui pulsanti verdi con una croce nera per ingrandire, il pulsante verde con un trattino per diminuire, o sulla freccia verde per le mappe adiacenti.


METAR-TAF: